Weather History for Rochelle, IL

Change the Weather History Date:

Wednesday, March 27, 2013

  Actual Average (KRFD) Record (KRFD)
Temperature  
Mean Temperature 35 °F 42 °F  
Max Temperature 42 °F 52 °F 79 °F (1945)
Min Temperature 29 °F 31 °F 2 °F (1965)
Degree Days  
Heating Degree Days 30 23  
Month to date heating degree days 774  
Since 1 July heating degree days 5776  
Cooling Degree Days 0 0  
Month to date cooling degree days 0  
Year to date cooling degree days 0  
Moisture  
Dew Point 25 °F    
Average Humidity 69    
Maximum Humidity 94    
Minimum Humidity 41    
Precipitation  
Precipitation 0.00 in 0.09 in 1.91 in (1991)
Month to date precipitation 1.95  
Year to date precipitation 4.73  
Snow  
Snow 0.00 in 0.10 in 2.50 in (1970)
Month to date snowfall 4.4  
Since 1 July snowfall 35.4  
Snow Depth -    
Sea Level Pressure  
Sea Level Pressure 30.30 in    
Wind  
Wind Speed 6 mph (NW)    
Max Wind Speed 12 mph    
Max Gust Speed -    
Visibility 10 miles    
Events      
T = Trace of Precipitation, MM = Missing Value Source: NWS Daily Summary

Daily Weather History Graph

Daily Weather History Graph

Search for Another Location

Airport:

Trip Planner

Search our weather history database for the weather conditions in past years. The results will help you decide how hot, cold, wet, or windy it might be!

Date:

Astronomy

Mar. 27, 2013 Rise Set
Actual Time 6:47 AM CDT 7:16 PM CDT
Civil Twilight 6:19 AM CDT 7:44 PM CDT
Nautical Twilight 5:46 AM CDT 8:17 PM CDT
Astronomical Twilight 5:12 AM CDT 8:51 PM CDT
Moon 8:01 PM CDT (3/27) 6:37 AM CDT (3/27)
Length of Visible Light 13h 25m
Length of Day
12h 29m
Full, 100% of the Moon is Illuminated
Mar 27
Full
Apr 2
Last Quarter
Apr 10
New
Apr 18
First Quarter
Apr 25
Full

Hourly Weather History & Observations

Time (CDT) Temp. Windchill Dew Point Humidity Pressure Visibility Wind Dir Wind Speed Gust Speed Precip Events Conditions
12:15 AM 32.9 °F 26.7 °F 28.2 °F 83% 30.27 in 10.0 mi WNW 6.9 mph - N/A   Overcast
12:35 AM 33.3 °F 27.1 °F 27.3 °F 79% 30.27 in 10.0 mi WNW 6.9 mph - N/A   Overcast
12:55 AM 33.1 °F 26.9 °F 27.3 °F 79% 30.27 in 10.0 mi WNW 6.9 mph - N/A   Overcast
1:15 AM 32.9 °F 27.5 °F 27.5 °F 81% 30.28 in 10.0 mi WNW 5.8 mph - N/A   Overcast
1:35 AM 32.5 °F 28.1 °F 27.9 °F 83% 30.28 in 10.0 mi WNW 4.6 mph - N/A   Overcast
1:55 AM 32.9 °F 26.7 °F 27.5 °F 81% 30.28 in 10.0 mi WNW 6.9 mph - N/A   Overcast
2:15 AM 33.1 °F 24.9 °F 26.1 °F 75% 30.28 in 10.0 mi WNW 10.4 mph - N/A   Overcast
2:35 AM 33.1 °F 26.1 °F 26.4 °F 77% 30.28 in 10.0 mi WNW 8.1 mph - N/A   Overcast
2:55 AM 32.9 °F 25.9 °F 26.6 °F 78% 30.28 in 10.0 mi WNW 8.1 mph - N/A   Overcast
3:15 AM 32.5 °F 26.2 °F 27.1 °F 80% 30.28 in 10.0 mi WNW 6.9 mph - N/A   Overcast
3:35 AM 32.4 °F 26.9 °F 26.6 °F 79% 30.27 in 10.0 mi WNW 5.8 mph - N/A   Overcast
3:55 AM 32.0 °F 26.4 °F 27.1 °F 82% 30.27 in 10.0 mi WNW 5.8 mph - N/A   Overcast
4:15 AM 32.2 °F 26.7 °F 27.0 °F 81% 30.28 in 10.0 mi NW 5.8 mph - N/A   Overcast
4:35 AM 32.2 °F 26.7 °F 26.4 °F 79% 30.27 in 10.0 mi WNW 5.8 mph - N/A   Overcast
4:55 AM 32.0 °F 27.5 °F 27.3 °F 83% 30.27 in 10.0 mi WNW 4.6 mph - N/A   Overcast
5:15 AM 32.0 °F 26.4 °F 27.1 °F 82% 30.28 in 10.0 mi WNW 5.8 mph - N/A   Overcast
5:55 AM 32.0 °F 26.4 °F 27.7 °F 84% 30.28 in 10.0 mi WNW 5.8 mph - N/A   Overcast
6:15 AM 32.0 °F 26.4 °F 27.9 °F 85% 30.29 in 10.0 mi NW 5.8 mph - N/A   Overcast
6:35 AM 32.0 °F 26.4 °F 28.0 °F 85% 30.29 in 10.0 mi WNW 5.8 mph - N/A   Overcast
6:55 AM 32.0 °F 26.4 °F 28.0 °F 85% 30.29 in 10.0 mi WNW 5.8 mph - N/A   Overcast
7:15 AM 32.0 °F 26.4 °F 28.2 °F 86% 30.30 in 10.0 mi West 5.8 mph - N/A   Overcast
7:35 AM 32.0 °F 26.4 °F 28.4 °F 87% 30.31 in 10.0 mi WNW 5.8 mph - N/A   Overcast
7:55 AM 32.2 °F 26.7 °F 28.4 °F 86% 30.31 in 10.0 mi WNW 5.8 mph - N/A   Overcast
8:15 AM 32.4 °F 26.9 °F 28.8 °F 87% 30.31 in 10.0 mi West 5.8 mph - N/A   Overcast
8:35 AM 32.9 °F 27.5 °F 28.8 °F 85% 30.31 in 10.0 mi West 5.8 mph - N/A   Overcast
8:55 AM 34.0 °F 29.8 °F 28.6 °F 81% 30.32 in 10.0 mi NW 4.6 mph - N/A   Scattered Clouds
9:15 AM 34.9 °F - 28.4 °F 77% 30.32 in 10.0 mi Calm Calm - N/A   Mostly Cloudy
9:55 AM 36.9 °F 32.2 °F 28.4 °F 71% 30.32 in 10.0 mi NNW 5.8 mph - N/A   Overcast
10:15 AM 37.4 °F 34.9 °F 28.8 °F 71% 30.32 in 10.0 mi West 3.5 mph - N/A   Overcast
10:35 AM 37.9 °F 35.5 °F 26.4 °F 63% 30.32 in 10.0 mi NNW 3.5 mph - N/A   Overcast
10:55 AM 39.2 °F 32.0 °F 23.0 °F 52% 30.32 in 10.0 mi West 11.5 mph - N/A   Overcast
11:15 AM 39.2 °F 32.5 °F 23.0 °F 52% 30.33 in 10.0 mi West 10.4 mph - N/A   Overcast
11:35 AM 39.2 °F 33.6 °F 18.7 °F 44% 30.33 in 10.0 mi NW 8.1 mph - N/A   Overcast
11:55 AM 38.7 °F 33.6 °F 18.0 °F 43% 30.33 in 10.0 mi NW 6.9 mph - N/A   Overcast
12:15 PM 38.8 °F 36.5 °F 16.9 °F 41% 30.33 in 10.0 mi West 3.5 mph - N/A   Overcast
12:35 PM 38.8 °F 35.4 °F 17.1 °F 41% 30.33 in 10.0 mi NW 4.6 mph - N/A   Overcast
12:55 PM 39.6 °F 34.7 °F 20.5 °F 46% 30.33 in 10.0 mi WNW 6.9 mph - N/A   Overcast
1:15 PM 39.7 °F 36.5 °F 21.7 °F 49% 30.32 in 10.0 mi WNW 4.6 mph - N/A   Overcast
1:35 PM 40.1 °F 38.0 °F 21.0 °F 47% 30.32 in 10.0 mi West 3.5 mph - N/A   Overcast
1:55 PM 40.1 °F 38.0 °F 21.0 °F 47% 30.32 in 10.0 mi West 3.5 mph - N/A   Overcast
2:15 PM 39.9 °F 33.9 °F 21.7 °F 48% 30.32 in 10.0 mi WNW 9.2 mph - N/A   Overcast
2:55 PM 40.3 °F 37.1 °F 21.2 °F 47% 30.31 in 10.0 mi West 4.6 mph - N/A   Overcast
3:15 PM 40.6 °F 36.0 °F 21.6 °F 47% 30.31 in 10.0 mi NNW 6.9 mph - N/A   Overcast
3:35 PM 40.3 °F 36.3 °F 23.9 °F 52% 30.30 in 10.0 mi NNW 5.8 mph - N/A   Overcast
3:55 PM 40.1 °F 38.0 °F 22.3 °F 49% 30.30 in 10.0 mi North 3.5 mph - N/A   Overcast
4:15 PM 40.5 °F 35.8 °F 22.6 °F 49% 30.30 in 10.0 mi NE 6.9 mph - N/A   Overcast
4:35 PM 41.9 °F 39.0 °F 22.8 °F 47% 30.30 in 10.0 mi WNW 4.6 mph - N/A   Overcast
4:55 PM 41.0 °F 38.0 °F 22.3 °F 47% 30.30 in 10.0 mi WNW 4.6 mph - N/A   Overcast
5:15 PM 40.5 °F 35.8 °F 22.8 °F 49% 30.30 in 10.0 mi North 6.9 mph - N/A   Overcast
5:35 PM 40.6 °F 36.0 °F 23.0 °F 49% 30.30 in 10.0 mi North 6.9 mph - N/A   Scattered Clouds
5:55 PM 40.3 °F - 20.8 °F 46% 30.29 in 10.0 mi Calm Calm - N/A   Clear
6:15 PM 40.3 °F - 22.5 °F 49% 30.29 in 10.0 mi Calm Calm - N/A   Clear
6:35 PM 39.6 °F 37.4 °F 20.1 °F 46% 30.29 in 10.0 mi North 3.5 mph - N/A   Clear
6:55 PM 36.1 °F 32.3 °F 25.5 °F 65% 30.29 in 10.0 mi NNE 4.6 mph - N/A   Clear
7:15 PM 35.2 °F 32.4 °F 25.0 °F 66% 30.29 in 10.0 mi NE 3.5 mph - N/A   Clear
7:35 PM 34.9 °F 30.8 °F 24.4 °F 66% 30.30 in 10.0 mi NE 4.6 mph - N/A   Clear
7:55 PM 35.8 °F 33.0 °F 23.0 °F 60% 30.30 in 10.0 mi NE 3.5 mph - N/A   Clear
8:15 PM 35.6 °F - 22.8 °F 60% 30.30 in 10.0 mi Calm Calm - N/A   Clear
8:35 PM 34.2 °F - 23.0 °F 64% 30.31 in 10.0 mi Calm Calm - N/A   Clear
8:55 PM 34.0 °F - 23.9 °F 67% 30.31 in 10.0 mi Calm Calm - N/A   Clear
9:15 PM 31.1 °F - 25.9 °F 81% 30.31 in 10.0 mi Calm Calm - N/A   Clear
9:35 PM 31.3 °F - 26.1 °F 81% 30.32 in 10.0 mi Calm Calm - N/A   Scattered Clouds
9:55 PM 30.7 °F - 26.6 °F 85% 30.32 in 10.0 mi Calm Calm - N/A   Mostly Cloudy
10:15 PM 30.0 °F 25.2 °F 27.3 °F 90% 30.32 in 10.0 mi SSW 4.6 mph - N/A   Scattered Clouds
10:35 PM 29.8 °F - 28.4 °F 94% 30.32 in 10.0 mi Calm Calm - N/A   Scattered Clouds
10:55 PM 29.7 °F - 28.2 °F 94% 30.32 in 10.0 mi Calm Calm - N/A   Clear
11:15 PM 29.8 °F - 28.4 °F 94% 30.32 in 10.0 mi Calm Calm - N/A   Scattered Clouds
11:35 PM 29.8 °F - 28.2 °F 94% 30.32 in 10.0 mi Calm Calm - N/A   Scattered Clouds
11:55 PM 29.3 °F - 27.5 °F 93% 30.32 in 10.0 mi Calm Calm - N/A   Scattered Clouds